Regional Weather Roundup
Issued by NWS Northern Indiana

Home | Current Version | Previous Version | Text Only | Print | Product List | Glossary Off
Versions: 1 2 3 4 5 6 7 8 9 10 11 12 13 14 15 16 17 18 19 20 21 22 23 24 25 26 27 28 29 30 31 32 33 34 35 36 37 38 39 40 41 42 43 44 45 46 47 48 49 50

000
ASUS43 KIWX 011200
RWRIWX

KIWX WEATHER ROUNDUP
NATIONAL WEATHER SERVICE NORTHERN INDIANA
800 AM EDT WED JUL 01 2015

NOTE: "FAIR" INDICATES FEW OR NO CLOUDS BELOW 12,000 FEET WITH NO
SIGNIFICANT WEATHER AND/OR OBSTRUCTIONS TO VISIBILITY.

* THESE STATIONS ARE NOT UNDER NWS QUALITY CONTROL. THEY ALSO MAY NOT
  REPORT WEATHER SUCH AS PRECIPITATION OR FOG.

INZ001>027-011300-
NORTHERN INDIANA

CITY           SKY/WX    TMP DP  RH WIND       PRES   REMARKS
GARY*          PTSUNNY   59  54  82 N8        29.97R
LAPORTE*       CLOUDY    60  58  94 N12       29.95R
KNOX*          CLOUDY    55  55 100 N7        29.94R
SOUTH BEND     PTSUNNY   59  55  87 NW9       29.94R
6HR MIN TEMP:  57; 6HR MAX TEMP:  59;

ELKHART*       CLOUDY    57  55  94 NW6       29.94R
GOSHEN         CLOUDY    58  55  90 NW7       29.93R
6HR MIN TEMP:  55; 6HR MAX TEMP:  58;

LOGANSPORT*    PTSUNNY   59  55  88 N5        29.94R
WARSAW*          N/A     55  55 100 NW9       29.93R
ANGOLA*        CLOUDY    57  54  88 NW10      29.91R
FORT WAYNE     MOSUNNY   60  56  86 W6        29.92R
6HR MIN TEMP:  57; 6HR MAX TEMP:  61;


$$
INZ028>050-011300-
CENTRAL INDIANA

CITY           SKY/WX    TMP DP  RH WIND       PRES   REMARKS
LAFAYETTE      MOSUNNY   61  58  90 CALM      29.94R
6HR MIN TEMP:  56; 6HR MAX TEMP:  63;

KOKOMO*        SUNNY     61  55  82 N5        29.94R
6HR MIN TEMP:  57; 6HR MAX TEMP:  63;

MUNCIE*        SUNNY     61  57  87 NW5       29.93R
6HR MIN TEMP:  59; 6HR MAX TEMP:  63;

INDIANAPOLIS   PTSUNNY   65  58  78 NE7       29.91R
6HR MIN TEMP:  62; 6HR MAX TEMP:  68;


$$
MIZ043>046-050>051-056>058-064>065-071>073-077>080-011300-
SOUTHWEST LOWER MICHIGAN

CITY           SKY/WX    TMP DP  RH WIND       PRES   REMARKS
BATTLE CREEK   CLOUDY    58  56  93 NW9       29.91R
6HR MIN TEMP:  58; 6HR MAX TEMP:  61;

BENTON HARBOR  CLOUDY    58  52  80 VRB5      29.93R
6HR MIN TEMP:  58; 6HR MAX TEMP:  60;

COLDWATER*     CLOUDY    56  56  99 W6        29.91S FOG
6HR MIN TEMP:  56; 6HR MAX TEMP:  58;

HILLSDALE*     CLOUDY    60  59  99 W6        29.90R FOG
HOLLAND        PTSUNNY   56  50  80 NW5       29.94R
6HR MIN TEMP:  54; 6HR MAX TEMP:  57;

GRAND RAPIDS   CLOUDY    56  53  90 NW8       29.92R
6HR MIN TEMP:  55; 6HR MAX TEMP:  60;

KALAMAZOO      CLOUDY    56  53  90 W8        29.93R FOG
6HR MIN TEMP:  56; 6HR MAX TEMP:  58;

STURGIS*       CLOUDY    55  55 100 NW12      29.92S
THREE RIVERS*  CLOUDY    57  54  88 NW12      29.93R
6HR MIN TEMP:  55; 6HR MAX TEMP:  57;


$$
OHZ001>008-015>018-024>025-011300-
NORTHWEST OHIO

CITY           SKY/WX    TMP DP  RH WIND       PRES   REMARKS
DEFIANCE       CLOUDY    59  56  89 NW5       29.90R
6HR MIN TEMP:  59; 6HR MAX TEMP:  62;

FINDLAY        CLOUDY    61  59  93 NW8       29.88S FOG
6HR MIN TEMP:  61; 6HR MAX TEMP:  63;

TOLEDO EXPRESS CLOUDY    62  59  90 W9        29.87R
6HR MIN TEMP:  60; 6HR MAX TEMP:  62;

TOLEDO METCALF CLOUDY    64  60  87 W7        29.88S
6HR MIN TEMP:  61; 6HR MAX TEMP:  64;

LIMA           CLOUDY    59  57  93 NW9       29.91R FOG
6HR MIN TEMP:  58; 6HR MAX TEMP:  63;


$$
AND FOR LAKE MICHIGAN COASTAL AND OPEN LAKE BUOY OBSERVATIONS

STATION/POSITION TEMP    WIND        PRES    VSBY  WAVE
                 AIR SEA DIR/SP/G                  HT/PER
                 (F)     (DEG/KT/KT) (MB)    (MI)  (FT/S)
CALUMET HARBOR    57      20/  7/ 12   N/A
MICHIGAN CITY     57     360/ 15/ 17   N/A
BURNS HARBOR      58      20/ 15/ 18 1014.2S
SAINT JOSEPH      59     330/ 12/ 16   N/A
4 MI NW BRIDGMAN  59 63                N/A           5/ 6
MICHIGAN CITY     58 65   20/ 14/ 16   N/A           4/ 5

$$
&&



USA.gov is the U.S. government's official web portal to all federal, state and local government web resources and services.